Flag for Spain Weather past 2 weeks in Santa Cruz de Tenerife, Canary Islands, Spain

Now
68 °F

Partly sunny.


Feels Like: 68 °F
Forecast: 75 / 80 °F
Wind: 7 mph from West

Location: Tenerife / Los Rodeos

Current Time: Sep 16, 2014 at 8:41:29 PM

Latest Report: Sep 16, 2014 at 8:00 PM


Visibility: N/A

Pressure: 30.04 "Hg

Humidity: 88%

Dew point: 64 °F

Location of Santa Cruz de TenerifeLocation

Historic Weather in Santa Cruz de Tenerife — Graph

°F

Santa Cruz de Tenerife temperature yesterday

Maximum temperature yesterday: 79 °F (at 2:00 PM)
Minimum temperature yesterday: 64 °F (at 6:00 AM)
Average temperature yesterday: 71 °F

Past Weeks' High & Low Weather Summary

 TemperatureHumidityPressure
High79 °F (Sep 5, 3:30 PM)100% (Sep 1, 8:00 PM)30.21 "Hg (Sep 1, 8:00 PM)
Low59 °F (Sep 3, 8:30 AM)50% (Sep 13, 6:00 PM)29.95 "Hg (Sep 16, 6:00 AM)
Average71 °F82%30.10 "Hg
* Reported Sep 1 7:00 PM — Sep 16 7:30 PM, Santa Cruz de Tenerife, Weather by CustomWeather, © 2014

Note: Actual official high and low records may vary slightly from our data, if they occured in-between our weather recording intervals... More about our weather records

Advertising

Santa Cruz de Tenerife weather history for previous 24 hours

 ConditionsComfort  
Time TempWeatherWind HumidityBarometerVisibility
7:30 PM
Sep 16
66 °FPartly sunny.7 mph94%30.04 "HgN/A
7:00 PM68 °FPartly sunny.8 mph88%30.01 "HgN/A
6:30 PM68 °FLight rain. Broken clouds.9 mph100%30.01 "Hg4 mi
6:00 PM70 °FPartly sunny.10 mph94%30.01 "HgN/A
5:30 PM70 °FLight rain. Partly sunny.10 mph88%30.01 "Hg5 mi
5:00 PM70 °FPartly sunny.8 mph88%30.01 "HgN/A
4:30 PM72 °FPartly sunny.12 mph78%30.01 "HgN/A
4:00 PM72 °FPartly sunny.13 mph78%30.01 "HgN/A
3:30 PM73 °FPartly sunny.16 mph74%30.01 "HgN/A
3:00 PM73 °FPartly sunny.12 mph74%30.01 "HgN/A
2:30 PM73 °FPartly sunny.12 mph74%30.04 "HgN/A
2:00 PM73 °FPartly sunny.12 mph78%30.04 "HgN/A
1:30 PM72 °FPartly sunny.10 mph83%30.04 "HgN/A
1:00 PM73 °FPartly sunny.10 mph83%30.04 "HgN/A
12:30 PM73 °FPartly sunny.9 mph78%30.04 "HgN/A
12:00 PM73 °FBroken clouds.7 mph78%30.04 "HgN/A
11:30 AM73 °FPartly sunny.13 mph78%30.04 "HgN/A
11:00 AM72 °FPartly sunny.15 mph83%30.04 "HgN/A
10:30 AM72 °FPartly sunny.15 mph83%30.01 "HgN/A
10:00 AM72 °FPartly sunny.16 mph83%30.01 "HgN/A
9:30 AM72 °FPassing clouds.16 mph78%30.01 "HgN/A
9:00 AM68 °FPassing clouds.10 mph94%29.98 "HgN/A
8:30 AM66 °FPassing clouds.7 mph100%29.98 "HgN/A
8:00 AM66 °FFog.2 mph94%29.98 "HgN/A
7:30 AM66 °FPassing clouds.13 mph100%29.98 "HgN/A
7:00 AM64 °FPassing clouds.13 mph100%29.98 "HgN/A
6:30 AM64 °FPassing clouds.1 mph94%29.98 "HgN/A
6:00 AM64 °FPassing clouds.No wind88%29.95 "HgN/A
11:00 PM
Sep 15
66 °FPassing clouds.16 mph78%30.04 "HgN/A
10:30 PM66 °FPassing clouds.18 mph88%30.04 "HgN/A
10:00 PM66 °FPassing clouds.15 mph88%30.04 "HgN/A
9:30 PM66 °FPassing clouds.18 mph88%30.01 "HgN/A
9:00 PM68 °FPassing clouds.18 mph88%30.01 "HgN/A
8:30 PM68 °FPassing clouds.9 mph88%30.01 "HgN/A
8:00 PM70 °FPassing clouds.1 mph88%30.01 "HgN/A
Weather by CustomWeather, © 2014

See weather overviewHow to use our weather pages